Date String (YYYY-MM-DD hh:mm:ss) UTC,Instrument flags,absolute air pressure of the measurement (hPa),sample flow rate (lpm),inlet stack bypass flow (lpm),air temperature of the measurement (°C),ambient temperature measured by the external sensor (°C),aerosol sample conditioner tube jacket temperature (°C),OPC LED temperature (°C),internal box temperature (°C),relative humidity of the measurement (%),span deviation,mass concentration of particles derived from Lorenz-Mie calculation of OPC scattering (μg/m³),mass concentration of particles derived from Lorenz-Mie calculation of OPC scattering (μg/m³),mass concentration of particles derived from Lorenz-Mie calculation of OPC scattering (μg/m³)
DateTimeUTC,F1_M11,P_M11,Q1_M11,Q2_M11,T1_M11,T2_M11,T3_M11,T4_M11,T5_M11,U1_M11,ZSPAN_M11,X2_M11,X0_M11,X1_M11
2023-10-03 17:00:00,SystemResetWarning,0826.5,4.99,000.00,028.8,027.5,000.0,037.2,030.5,11.4,0000.0,0001.30,0002.91,0000.86
2023-10-03 17:01:00,SystemResetWarning,0826.6,4.99,000.00,028.8,027.5,000.0,037.2,030.5,11.4,0000.0,0001.33,0002.96,0000.86
2023-10-03 17:02:00,SystemResetWarning,0826.6,5.01,000.00,028.8,027.5,000.0,037.3,030.5,11.6,0000.0,0001.34,0003.03,0000.84
2023-10-03 17:03:00,SystemResetWarning,0826.6,5.01,000.00,028.9,027.5,000.0,037.3,030.5,11.5,0000.0,0001.35,0003.02,0000.84
2023-10-03 17:04:00,SystemResetWarning,0826.6,4.99,000.00,028.9,027.5,000.0,037.3,030.5,11.2,0000.0,0001.32,0002.98,0000.83
2023-10-03 17:05:00,SystemResetWarning,0826.6,5.00,000.00,028.9,027.5,000.0,037.3,030.5,11.4,0000.0,0001.27,0002.72,0000.82
2023-10-03 17:06:00,SystemResetWarning,0826.6,5.00,000.00,028.9,027.6,000.0,037.3,030.5,10.8,0000.0,0001.29,0002.71,0000.83
2023-10-03 17:07:00,SystemResetWarning,0826.6,5.01,000.00,028.9,027.6,000.0,037.3,030.6,11.0,0000.0,0001.33,0002.81,0000.83
2023-10-03 17:08:00,SystemResetWarning,0826.6,4.99,000.00,028.9,027.5,000.0,037.3,030.6,11.2,0000.0,0001.33,0002.78,0000.84
2023-10-03 17:09:00,SystemResetWarning,0826.6,4.99,000.00,028.9,026.1,000.0,037.3,030.5,11.0,0000.0,0001.30,0002.68,0000.84
2023-10-03 17:10:00,SystemResetWarning,0826.6,5.01,000.00,028.8,025.0,000.0,037.2,030.4,11.3,0000.0,0001.26,0002.34,0000.83
2023-10-03 17:11:00,SystemResetWarning,0826.6,5.02,000.00,028.8,025.0,000.0,037.2,030.2,11.5,0000.0,0001.25,0002.51,0000.82
2023-10-03 17:12:00,SystemResetWarning,0826.6,5.00,000.00,028.7,025.3,000.0,037.2,030.1,11.3,0000.0,0001.24,0002.50,0000.82
2023-10-03 17:13:00,SystemResetWarning,0826.6,5.00,000.00,028.6,025.6,000.0,037.2,030.1,11.1,0000.0,0001.20,0002.35,0000.84
2023-10-03 17:14:00,SystemResetWarning,0826.6,5.00,000.00,028.6,025.9,000.0,037.1,030.1,11.0,0000.0,0001.19,0002.25,0000.83
2023-10-03 17:15:00,SystemResetWarning,0826.6,5.00,000.00,028.6,026.1,000.0,037.1,030.1,11.2,0000.0,0001.22,0002.29,0000.85
2023-10-03 17:16:00,SystemResetWarning,0826.6,5.00,000.00,028.5,026.4,000.0,037.1,030.1,11.0,0000.0,0001.34,0003.25,0000.88
2023-10-03 17:17:00,SystemResetWarning,0826.6,5.00,000.00,028.6,026.5,000.0,037.1,030.1,10.9,0000.0,0001.36,0003.36,0000.88
2023-10-03 17:18:00,SystemResetWarning,0826.7,5.00,000.00,028.6,026.7,000.0,037.1,030.2,11.0,0000.0,0001.43,0003.62,0000.89
2023-10-03 17:19:00,SystemResetWarning,0826.8,5.00,000.00,028.6,026.8,000.0,037.1,030.2,11.0,0000.0,0001.59,0004.58,0000.91
2023-10-03 17:20:00,SystemResetWarning,0826.7,4.99,000.00,028.6,026.9,000.0,037.1,030.2,11.2,0000.0,0001.67,0004.87,0000.93
2023-10-03 17:21:00,SystemResetWarning,0826.6,5.00,000.00,028.6,027.0,000.0,037.1,030.2,11.2,0000.0,0001.77,0005.06,0000.94
2023-10-03 17:22:00,SystemResetWarning,0826.6,5.00,000.00,028.6,027.1,000.0,037.1,030.2,11.1,0000.0,0001.82,0005.04,0000.95
2023-10-03 17:23:00,SystemResetWarning,0826.7,4.99,000.00,028.6,027.1,000.0,037.1,030.2,11.1,0000.0,0001.82,0004.98,0000.95
2023-10-03 17:24:00,SystemResetWarning,0826.7,5.00,000.00,028.6,027.1,000.0,037.1,030.2,11.2,0000.0,0001.84,0005.05,0000.95
2023-10-03 17:25:00,SystemResetWarning,0826.8,5.01,000.00,028.6,027.2,000.0,037.1,030.2,11.5,0000.0,0002.01,0008.15,0000.96
2023-10-03 17:26:00,SystemResetWarning,0826.7,5.01,000.00,028.6,027.2,000.0,037.1,030.3,11.8,0000.0,0002.05,0008.77,0000.95
2023-10-03 17:27:00,SystemResetWarning,0826.6,5.00,000.00,028.7,027.3,000.0,037.1,030.3,11.9,0000.0,0001.99,0008.34,0000.94
2023-10-03 17:28:00,SystemResetWarning,0826.6,4.99,000.00,028.7,027.3,000.0,037.1,030.3,11.6,0000.0,0001.97,0008.20,0000.94
2023-10-03 17:29:00,SystemResetWarning,0826.6,5.00,000.00,028.7,027.3,000.0,037.1,030.3,11.5,0000.0,0001.91,0008.08,0000.93
2023-10-03 17:30:00,SystemResetWarning,0826.6,5.01,000.00,028.7,027.3,000.0,037.1,030.3,11.8,0000.0,0001.91,0007.97,0000.94
2023-10-03 17:31:00,SystemResetWarning,0826.6,5.02,000.00,028.7,027.3,000.0,037.1,030.3,11.4,0000.0,0001.95,0008.25,0000.95
2023-10-03 17:32:00,SystemResetWarning,0826.6,5.00,000.00,028.7,027.3,000.0,037.2,030.4,11.5,0000.0,0002.00,0008.66,0000.96
2023-10-03 17:33:00,SystemResetWarning,0826.6,4.99,000.00,028.7,027.3,000.0,037.2,030.3,11.4,0000.0,0002.03,0009.57,0000.97
2023-10-03 17:34:00,SystemResetWarning,0826.6,4.99,000.00,028.8,027.3,000.0,037.2,030.4,11.4,0000.0,0002.04,0009.64,0000.97
2023-10-03 17:35:00,SystemResetWarning,0826.6,5.00,000.00,028.8,027.4,000.0,037.2,030.4,11.5,0000.0,0002.05,0009.68,0000.97
2023-10-03 17:36:00,SystemResetWarning,0826.6,5.00,000.00,028.8,027.4,000.0,037.2,030.4,11.5,0000.0,0001.90,0008.17,0000.96
2023-10-03 17:37:00,SystemResetWarning,0826.6,5.01,000.00,028.8,027.4,000.0,037.2,030.4,11.5,0000.0,0001.82,0006.67,0000.95
2023-10-03 17:38:00,SystemResetWarning,0826.7,5.01,000.00,028.8,027.5,000.0,037.2,030.5,11.2,0000.0,0001.81,0006.62,0000.96
2023-10-03 17:39:00,SystemResetWarning,0826.7,5.00,000.00,028.8,027.5,000.0,037.2,030.5,11.3,0000.0,0001.81,0006.68,0000.96
2023-10-03 17:40:00,SystemResetWarning,0826.8,5.00,000.00,028.9,027.5,000.0,037.2,030.5,11.4,0000.0,0001.82,0006.69,0000.96
2023-10-03 17:41:00,SystemResetWarning,0826.8,5.00,000.00,028.9,027.5,000.0,037.3,030.5,11.4,0000.0,0001.74,0006.40,0000.96
2023-10-03 17:42:00,SystemResetWarning,0826.8,4.99,000.00,028.9,026.2,000.0,037.2,030.4,11.5,0000.0,0001.65,0005.63,0000.95
2023-10-03 17:43:00,SystemResetWarning,0826.8,5.01,000.00,028.8,025.0,000.0,037.1,030.3,11.4,0000.0,0001.58,0004.96,0000.93
2023-10-03 17:44:00,SystemResetWarning,0826.8,5.01,000.00,028.7,025.0,000.0,037.1,030.2,11.1,0000.0,0001.49,0003.27,0000.92
2023-10-03 17:45:00,SystemResetWarning,0826.8,5.01,000.00,028.6,025.2,000.0,037.1,030.1,11.2,0000.0,0001.42,0002.51,0000.91
2023-10-03 17:46:00,SystemResetWarning,0826.8,4.99,000.00,028.6,025.5,000.0,037.1,030.0,11.3,0000.0,0001.38,0002.44,0000.92
2023-10-03 17:47:00,SystemResetWarning,0826.8,5.00,000.00,028.5,025.9,000.0,037.1,030.1,11.5,0000.0,0001.38,0002.42,0000.92
2023-10-03 17:48:00,SystemResetWarning,0826.8,5.00,000.00,028.5,026.2,000.0,037.1,030.1,11.8,0000.0,0001.34,0002.30,0000.92
2023-10-03 17:49:00,SystemResetWarning,0826.8,5.00,000.00,028.5,026.4,000.0,037.1,030.1,11.8,0000.0,0001.32,0002.25,0000.92
2023-10-03 17:50:00,SystemResetWarning,0826.8,5.01,000.00,028.5,026.6,000.0,037.1,030.1,11.6,0000.0,0001.29,0002.16,0000.92
2023-10-03 17:51:00,SystemResetWarning,0826.9,5.00,000.00,028.5,026.7,000.0,037.0,030.2,11.5,0000.0,0001.25,0002.10,0000.91
2023-10-03 17:52:00,SystemResetWarning,0826.9,4.99,000.00,028.5,026.9,000.0,037.0,030.2,11.6,0000.0,0001.21,0002.01,0000.91
2023-10-03 17:53:00,SystemResetWarning,0826.9,4.99,000.00,028.5,027.0,000.0,037.0,030.2,11.7,0000.0,0001.16,0001.93,0000.89
2023-10-03 17:54:00,SystemResetWarning,0826.9,5.01,000.00,028.6,027.1,000.0,037.0,030.2,11.6,0000.0,0001.17,0002.00,0000.90
2023-10-03 17:55:00,SystemResetWarning,0826.9,5.02,000.00,028.6,027.1,000.0,037.0,030.3,11.7,0000.0,0001.18,0002.04,0000.90
2023-10-03 17:56:00,SystemResetWarning,0826.9,5.00,000.00,028.6,027.2,000.0,037.0,030.3,11.3,0000.0,0001.19,0002.02,0000.90
2023-10-03 17:57:00,SystemResetWarning,0826.8,4.99,000.00,028.6,027.2,000.0,037.0,030.3,11.6,0000.0,0001.21,0002.16,0000.89
2023-10-03 17:58:00,SystemResetWarning,0826.8,5.01,000.00,028.6,027.3,000.0,037.0,030.3,11.8,0000.0,0001.24,0002.32,0000.89
2023-10-03 17:59:00,SystemResetWarning,0826.8,5.01,000.00,028.6,027.3,000.0,037.1,030.3,12.0,0000.0,0001.27,0002.55,0000.88
